Location: Boca do Mato
(22.9085°S, 43.2930°W)
Time: 22:38:28
(UTC+00:00)

SKYMED 2 - Pass Details

Date: 14 July 2020
Orbit: 621 x 623 km, 97.9° (Epoch: 10 August)

Event Time Altitude Azimuth Distance (km) Brightness Sun altitude
Rises 08:55:30 0° 173° (S) 2,926 6.9 -9.0°
Reaches altitude 10° 08:57:43 10° 175° (S) 2,013 6.0 -8.5°
Maximum altitude 09:02:04 67° 257° (WSW) 683 3.6 -7.6°
Drops below altitude 10° 09:06:22 10° 339° (NNW) 1,989 6.2 -6.7°
Sets 09:08:33 0° 342° (NNW) 2,888 7.0 -6.2°
